This demonstration page uses our WeatherBlox Daily Observations layout. Learn more.

Left ArrowRight Arrow

53.62937, 11.41316

Hourly Observations for May 19, 2019

Temp ( °F °C ) Dew Point ( °F °C ) Humidity (%) Winds ( mph kmh ) Pressure ( in mb ) Visibility ( mi km ) Precip ( " mm )
6:50 am 06:50 Mostly Cloudy with Fog 52 11 50 10 94 94 NNE 7 11 29.77 1008 0 0 N/A
7:20 am 07:20 Mostly Cloudy with Fog 52 11 52 11 100 100 NE 6 9 29.77 1008 0 1 N/A
7:50 am 07:50 Mostly Cloudy with Fog 52 11 52 11 100 100 NE 7 11 29.77 1008 0 1 N/A
8:20 am 08:20 Cloudy with Mist and Fog 54 12 52 11 94 94 NNE 7 11 29.74 1007 1 1 N/A
8:50 am 08:50 Cloudy with Mist and Fog 54 12 52 11 94 94 NE 8 13 29.77 1008 1 2 N/A
9:20 am 09:20 Cloudy with Mist and Fog 54 12 54 12 100 100 NE 7 11 29.77 1008 2 3 N/A
9:50 am 09:50 Cloudy with Mist and Fog 55 13 54 12 94 94 NNE 7 11 29.77 1008 2 4 N/A
10:20 am 10:20 Mostly Cloudy 55 13 55 13 100 100 NNE 7 11 29.77 1008 4 6 N/A
10:50 am 10:50 Mostly Cloudy 57 14 54 12 88 88 NNE 8 13 29.77 1008 5 8 N/A
11:20 am 11:20 Partly Cloudy 57 14 54 12 88 88 NE 8 13 29.77 1008 30 48 N/A
11:50 am 11:50 Mostly Sunny 59 15 54 12 82 82 N 7 11 29.74 1007 6 9 N/A
12:20 pm 12:20 Mostly Sunny 61 16 54 12 77 77 NNE 7 11 29.74 1007 7 11 N/A
12:50 pm 12:50 Mostly Sunny 63 17 55 13 77 77 N 7 11 29.74 1007 7 11 N/A
1:20 pm 13:20 Mostly Sunny 63 17 54 12 73 73 NNE 9 15 29.74 1007 7 11 N/A
1:50 pm 13:50 Mostly Sunny 64 18 55 13 73 73 NNE 10 17 29.74 1007 7 11 N/A
2:20 pm 14:20 Mostly Sunny 64 18 55 13 73 73 NNE 10 17 29.74 1007 7 11 N/A
2:50 pm 14:50 Mostly Sunny 64 18 55 13 73 73 NNE 10 17 29.74 1007 7 11 N/A
3:20 pm 15:20 Mostly Sunny 64 18 54 12 68 68 NNE 14 22 29.71 1006 7 11 N/A
3:50 pm 15:50 Mostly Sunny 63 17 54 12 73 73 NNE 14 22 29.71 1006 7 11 N/A
4:20 pm 16:20 Mostly Sunny 63 17 54 12 73 73 NE 14 22 29.71 1006 7 11 N/A
4:50 pm 16:50 Mostly Sunny 61 16 54 12 77 77 NE 14 22 29.71 1006 7 11 N/A
5:20 pm 17:20 Mostly Sunny 63 17 54 12 73 73 NNE 12 19 29.71 1006 7 11 N/A
5:50 pm 17:50 Mostly Sunny 61 16 54 12 77 77 NNE 12 19 29.71 1006 7 11 N/A
6:20 pm 18:20 Mostly Sunny 61 16 54 12 77 77 NNE 13 20 29.71 1006 7 11 N/A
6:50 pm 18:50 Mostly Sunny 59 15 54 12 82 82 NNE 14 22 29.71 1006 7 11 N/A
7:20 pm 19:20 Mostly Sunny 57 14 54 12 88 88 NNE 13 20 29.71 1006 7 11 N/A
7:50 pm 19:50 Mostly Sunny 55 13 54 12 94 94 NE 10 17 29.71 1006 30 48 N/A
8:20 pm 20:20 Mostly Sunny 55 13 54 12 94 94 NNE 10 17 29.71 1006 30 48 N/A
8:50 pm 20:50 Mostly Sunny 55 13 54 12 94 94 NNE 6 9 29.71 1006 6 9 N/A

Powered by AerisWeather